Location: Asheville, NC
(35.6000°N, 82.5500°W)
Time: 12:39:51
(UTC-05:00)

Vanguard 1 - Pass Details

Date: 09 December 2017
Orbit: 649 x 3834 km, 34.3° (Epoch: 16 January)

Event Time Altitude Azimuth Distance (km) Brightness Sun altitude
Rises 08:49:21 0° 219° (SW) 7,964 14.7 12.8°
Reaches altitude 10° 08:55:22 10° 214° (SSW) 6,893 14.5 13.7°
Maximum altitude 09:15:33 45° 150° (SSE) 3,794 14.3 16.7°
Drops below altitude 10° 09:28:43 10° 84° (E) 4,664 14.1 18.5°
Sets 09:31:50 0° 78° (ENE) 5,305 14.2 18.9°
